DELTA 1 DEB, 10837

Orbit data source: Space-Track

DELTA 1 DEB, 10837 is space debris in SSO originally from a launch on Thu, 29 Jul 1976 UTC launched from the Air Force Western Test Range (AFWTR). Debris objects in space refer to the collection of defunct objects orbiting the Earth. Examples of debris include non-operational satellites, rocket bodies, and fragments generated from explosions, collisions, or faulty payload assembly.

Loading next visibility...
Identifier
10837, 1976-077CH
Orbit
SSO
Country
Flag of USUS
Related business
Manufacturer
Unknown
Mission
Spacecraft
Bus & Motor
Unknown
Mass
Unknown
Launch date (UTC)
1976-07-29 (50 years ago)
Launch vehicle
Unknown
Launch site
Air Force Western Test Range (AFWTR)
Object type
Payload
Rocket body
Debris
Shape & HBR
Unknown shape, 0.1 m
Radar Cross Section
Medium (>0.1 m² and <1 m²)

Expand to show TLE details & history
Last TLE update: 12 hours ago

TLE from 12 hours ago
0 DELTA 1 DEB
1 10837U 76077CH  26171.30035926  .00000013  00000-0  60636-3 0  9999
2 10837 102.3265  99.1647 0197097 174.9623 340.1262 12.04515568193997
Epoch: 2026-06-20T07:12Z
TLE epoch observation values (Epoch: 2026-06-20T07:12:31.040Z)
Latitude
25.09319°
Longitude
-91.6371°
Altitude
1,514.714 km
Speed
7.175 km/s
True Right ascension
19h 00m 02s
True Declination
24° 58' 26"
Sunlit
Object was in full shadow at epoch
Visualization orbit readout
Latitude
Unknown
Longitude
Unknown
Altitude
Unknown
Speed
Unknown
Apparent Right ascension
Unknown
Apparent Declination
Unknown
Sunlit
N/A
Visualization observer readout
Local Sidereal Time
06:19:34
Azimuth
Unknown
Elevation
Unknown
Doppler factor
Unknown
Orbital elements
Apogee altitude
1,816.742 km
Perigee altitude
1,499.949 km
Semi-major axis
8,036.483 km
Eccentricity
0.01971
Inclination
102.3265°
RAAN
99.1647°
Arg. of periapsis
174.9623°
True anomaly
339.34023°
Mean anomaly
340.1262°
Eccentric anomaly
339.73506°
Mean motion
3.01262 °/min
Orbital period
119.5 mins
BSTAR
0.00060636
Loading maneuver chart data...
Computing Atmospheric mass density...
Loading historical data...
Loading historical data...
Loading historical data...
Loading historical data...
Loading historical data...
Loading historical data...
Loading historical data...

Documentation

Showing up to 5 results
|